FW1811 Weather Reports


time (UTC)temp
F
wind
direction
speed
knots
gust
knots
rain 1hr
in
rain 24hr
in
rain mn
in
humidity
%
barometer
mb
20190523220038 76 0.0 0.0 0.00 0.12 0.00 83 1013.6
20190523215034 76 0.0 0.0 0.00 0.12 0.00 83 1013.4
20190523214037 75 212 0.0 0.9 0.00 0.12 0.00 84 1013.4
20190523213024 75 219 0.0 0.9 0.00 0.13 0.00 84 1013.1
20190523212037 75 0.0 0.0 0.00 0.13 0.00 84 1013.3
20190523211034 75 0.0 0.0 0.00 0.13 0.00 84 1013.1
20190523210032 76 0.0 0.0 0.00 0.14 0.00 84 1013.1
20190523205034 76 0.0 0.0 0.00 0.14 0.00 84 1012.9
20190523204037 76 202 0.0 1.7 0.00 0.14 0.00 83 1013.0
20190523203034 75 0.0 0.0 0.00 0.14 0.00 83 1013.1
20190523202038 75 0.0 0.0 0.00 0.14 0.00 84 1012.6
20190523201024 76 0.0 0.0 0.00 0.14 0.00 84 1012.9
20190523200037 75 0.0 0.0 0.00 0.14 0.00 84 1012.8
20190523195034 75 0.0 0.0 0.00 0.14 0.00 85 1012.4
20190523194032 75 0.0 0.0 0.00 0.14 0.00 85 1012.6
20190523193034 75 0.0 0.0 0.00 0.14 0.00 85 1012.4
20190523192037 75 169 0.0 0.9 0.00 0.14 0.00 85 1012.1
20190523191034 75 137 0.9 1.7 0.00 0.14 0.00 85 1012.4
20190523190037 75 139 0.9 1.7 0.00 0.14 0.00 85 1012.4
20190523185024 75 0.0 0.0 0.00 0.14 0.00 84 1012.4
20190523184037 75 157 0.0 0.9 0.00 0.14 0.00 85 1012.4
20190523183034 75 168 0.0 0.9 0.00 0.14 0.00 85 1012.6
20190523182033 75 167 0.0 0.9 0.00 0.14 0.00 84 1012.6
20190523181034 75 134 0.9 1.7 0.00 0.14 0.00 84 1012.6
20190523180038 75 162 0.0 1.7 0.00 0.14 0.00 84 1012.6
20190523175034 75 186 0.0 0.9 0.00 0.14 0.00 84 1012.8
20190523174038 75 145 0.0 0.9 0.00 0.14 0.00 85 1012.9
20190523173025 75 136 0.0 0.9 0.00 0.14 0.00 85 1012.9
20190523172037 75 161 0.0 0.9 0.00 0.14 0.00 84 1013.0
20190523171034 75 160 0.0 0.9 0.00 0.14 0.00 84 1013.0
20190523170034 76 184 0.0 0.9 0.00 0.14 0.00 84 1013.1
20190523165034 75 166 0.0 1.7 0.00 0.14 0.00 84 1013.1
20190523164038 76 161 0.0 0.9 0.00 0.14 0.00 83 1013.1
20190523163034 76 127 0.0 0.9 0.00 0.14 0.00 83 1013.2
20190523162032 76 0.0 0.0 0.00 0.14 0.00 82 1013.1
20190523161034 76 0.0 0.0 0.00 0.14 0.00 82 1013.1
20190523160038 76 201 0.0 0.9 0.00 0.14 0.00 82 1013.4
20190523155034 76 189 0.0 1.7 0.00 0.14 0.14 81 1013.4
20190523154032 76 200 0.9 1.7 0.00 0.14 0.14 81 1013.6
20190523153034 77 198 0.0 0.9 0.00 0.14 0.14 80 1013.8
20190523152038 77 186 0.9 0.9 0.00 0.14 0.14 79 1013.8
20190523151034 76 0.0 0.0 0.00 0.14 0.14 80 1014.0
20190523150038 76 0.0 0.0 0.00 0.14 0.14 80 1014.0
20190523145034 76 0.0 0.0 0.00 0.14 0.14 81 1013.9
20190523144033 76 160 0.0 0.9 0.00 0.14 0.14 81 1013.9
20190523143034 76 141 0.0 1.7 0.00 0.14 0.14 81 1014.1
20190523142038 76 119 0.0 0.9 0.00 0.14 0.14 81 1014.1
20190523141033 76 188 0.0 0.9 0.00 0.14 0.14 81 1014.1
20190523140038 76 25 1.7 3.5 0.00 0.14 0.14 81 1014.1
20190523135025 76 27 0.9 1.7 0.00 0.14 0.14 81 1013.9
20190523134038 76 29 1.7 2.6 0.00 0.14 0.14 81 1014.1
20190523133033 76 49 0.9 2.6 0.00 0.14 0.14 81 1013.9
20190523132033 76 23 0.9 1.7 0.00 0.14 0.14 81 1013.8
20190523131033 76 351 2.6 2.6 0.00 0.14 0.14 81 1013.9
20190523130038 76 28 1.7 3.5 0.00 0.14 0.14 81 1014.0
20190523125033 76 27 1.7 3.5 0.00 0.14 0.14 82 1014.0
20190523124038 76 356 1.7 2.6 0.00 0.14 0.14 82 1013.8
20190523123025 76 40 1.7 3.5 0.00 0.14 0.14 81 1013.6
20190523122038 76 353 2.6 4.3 0.00 0.14 0.14 82 1013.4
20190523121034 76 7 3.5 5.2 0.00 0.14 0.14 82 1013.4
20190523120033 76 12 2.6 4.3 0.00 0.14 0.14 82 1013.4
20190523115033 76 341 1.7 3.5 0.00 0.14 0.14 82 1013.3
20190523114033 76 1 3.5 5.2 0.00 0.14 0.14 82 1013.1
20190523113034 76 1 3.5 5.2 0.00 0.14 0.14 82 1013.1
20190523112038 76 24 1.7 4.3 0.00 0.14 0.14 82 1013.1
20190523111033 76 353 4.3 5.2 0.00 0.14 0.14 81 1012.6
20190523110038 76 356 2.6 5.2 0.00 0.14 0.14 81 1012.8
20190523105025 76 19 3.5 4.3 0.00 0.14 0.14 81 1012.6
20190523104038 76 12 2.6 4.3 0.00 0.14 0.14 81 1012.4
20190523103033 76 14 2.6 2.6 0.00 0.14 0.14 81 1012.4
20190523102033 76 14 3.5 7.0 0.00 0.14 0.14 79 1012.4
20190523101033 76 15 2.6 3.5 0.00 0.14 0.14 78 1012.4
20190523100038 76 356 1.7 2.6 0.00 0.14 0.14 77 1012.4
20190523095034 76 5 2.6 4.3 0.00 0.14 0.14 77 1012.4
20190523094038 76 1 2.6 4.3 0.00 0.14 0.14 78 1012.3
20190523093025 76 19 3.5 4.3 0.00 0.14 0.14 78 1012.1
20190523092039 77 349 2.6 4.3 0.00 0.14 0.14 77 1012.2
20190523091034 77 353 4.3 7.0 0.00 0.14 0.14 75 1012.1
20190523090038 77 352 4.3 5.2 0.00 0.14 0.14 75 1012.1
20190523085033 77 15 4.3 7.0 0.00 0.14 0.14 76 1012.1
20190523084038 77 13 4.3 5.2 0.00 0.14 0.14 74 1012.1
20190523083034 78 36 3.5 7.0 0.00 0.14 0.14 74 1012.1
20190523082034 78 345 2.6 7.8 0.00 0.14 0.14 73 1012.1
20190523081033 78 335 5.2 9.6 0.00 0.14 0.14 72 1012.1
20190523080038 78 355 3.5 7.8 0.00 0.14 0.14 71 1012.1
20190523075034 79 5 3.5 5.2 0.00 0.14 0.14 68 1012.1
20190523074039 79 7 3.5 4.3 0.00 0.14 0.14 65 1012.1
20190523073025 79 315 1.7 3.5 0.00 0.14 0.14 67 1012.3
20190523072038 79 356 2.6 4.3 0.00 0.14 0.14 67 1012.3
20190523071033 79 51 1.7 4.3 0.00 0.14 0.14 67 1012.1
20190523070039 80 14 3.5 7.0 0.00 0.14 0.14 66 1012.4
20190523065034 80 351 2.6 3.5 0.00 0.14 0.14 67 1012.4
20190523064039 81 10 1.7 3.5 0.00 0.14 0.14 67 1012.6
20190523063026 80 299 2.6 3.5 0.00 0.14 0.14 69 1012.6
20190523062038 80 200 0.0 0.9 0.00 0.14 0.14 68 1012.8
20190523061033 81 24 2.6 3.5 0.00 0.14 0.14 69 1012.8
20190523060033 79 84 0.0 0.9 0.00 0.14 0.14 71 1012.8
20190523055034 79 318 1.7 3.5 0.00 0.14 0.14 70 1013.1
20190523054039 78 298 1.7 3.5 0.00 0.14 0.14 72 1013.1
20190523053034 77 30 0.9 2.6 0.00 0.14 0.14 71 1013.1
20190523052039 78 33 1.7 3.5 0.00 0.14 0.14 71 1013.1
20190523051026 79 104 0.9 1.7 0.00 0.14 0.14 69 1013.4
20190523050033 78 72 0.9 1.7 0.00 0.14 0.14 71 1013.4
20190523045034 78 229 0.0 0.9 0.00 0.14 0.14 72 1013.2
20190523044039 77 105 0.0 0.9 0.00 0.14 0.14 72 1013.8
20190523043034 77 132 0.0 0.9 0.00 0.14 0.14 72 1013.8
20190523042039 78 92 0.9 2.6 0.00 0.14 0.14 73 1014.0
20190523041027 76 118 0.0 1.7 0.00 0.14 0.14 76 1013.9
20190523040039 75 123 0.0 1.7 0.00 0.14 0.14 78 1014.0
20190523035034 74 63 1.7 2.6 0.00 0.14 0.14 81 1014.1
20190523034039 73 43 0.9 1.7 0.00 0.14 0.14 84 1014.1
20190523033034 72 58 1.7 5.2 0.00 0.14 0.14 85 1014.1
20190523032039 72 24 1.7 2.6 0.00 0.14 0.14 85 1014.3
20190523031026 72 0 2.6 4.3 0.00 0.14 0.14 85 1014.5
20190523030038 72 11 0.9 2.6 0.00 0.14 0.14 86 1014.5
20190523025034 71 122 0.0 0.9 0.00 0.14 0.14 86 1014.5
20190523024033 71 99 1.7 4.3 0.00 0.14 0.14 88 1014.8
20190523023033 70 45 2.6 4.3 0.00 0.14 0.14 89 1014.8
20190523022018 70 43 1.7 4.3 0.00 0.14 0.14 89 1014.8
20190523021034 70 17 4.3 7.8 0.00 0.14 0.14 89 1014.8
20190523020033 70 37 3.5 5.2 0.00 0.14 0.14 90 1015.0
20190523015034 70 60 6.1 12.2 0.00 0.14 0.14 90 1014.8
20190523014033 70 46 3.5 5.2 0.00 0.14 0.14 90 1015.1
20190523013034 70 43 0.9 2.6 0.00 0.14 0.14 90 1014.8
20190523012019 70 44 2.6 4.3 0.00 0.14 0.14 90 1014.8
20190523011034 70 20 3.5 7.0 0.01 0.14 0.14 90 1014.8
20190523010033 70 19 3.5 7.0 0.01 0.14 0.14 90 1014.7
20190523005026 69 24 3.5 4.3 0.01 0.14 0.14 91 1014.7
20190523004033 69 7 2.6 5.2 0.01 0.14 0.14 90 1014.8
20190523003034 69 10 1.7 4.3 0.01 0.14 0.14 90 1014.5
20190523002033 69 18 5.2 9.6 0.01 0.14 0.14 90 1014.5
20190523001034 69 31 7.0 13.0 0.00 0.13 0.13 90 1014.3
20190523000018 69 27 2.6 4.3 0.03 0.13 0.13 90 1014.5
20190522235034 68 39 1.7 4.3 0.04 0.13 0.13 90 1014.5
20190522234033 69 1 5.2 10.4 0.04 0.13 0.13 90 1014.5
20190522233034 69 15 3.5 7.8 0.07 0.13 0.13 90 1014.5
20190522232033 69 43 3.5 5.2 0.09 0.13 0.13 90 1014.1
20190522231034 69 358 3.5 7.8 0.11 0.13 0.13 90 1014.3
20190522230018 70 20 4.3 7.0 0.08 0.10 0.10 90 1014.1
20190522225034 70 16 3.5 4.3 0.06 0.09 0.09 90 1014.1
20190522224033 70 15 2.6 7.0 0.06 0.09 0.09 90 1013.8
20190522223026 70 19 3.5 7.0 0.05 0.06 0.06 89 1013.8
20190522222033 71 37 4.3 7.0 0.03 0.04 0.04 89 1013.4
20190522221034 71 11 4.3 5.2 0.01 0.02 0.02 88 1013.4